Location: Branche des Alpilles
(43.6087°N, 4.6976°E)
Time: 12:13:42
(UTC+00:00)

USA 238 - Pass Details

Date: 30 November 2020
Orbit: 996 x 1216 km, 63.4° (Epoch: 22 January)

Event Time Altitude Azimuth Distance (km) Brightness Sun altitude
Rises 17:44:51 0° 192° (SSW) 3,705 6.9 -17.4°
Reaches altitude 10° 17:47:31 10° 185° (S) 2,771 6.1 -17.9°
Maximum altitude 17:53:35 43° 116° (ESE) 1,404 4.0 -19.0°
Enters shadow 17:56:01 32° 71° (ENE) 1,718 4.2 -19.4°
